DECAYED

STARLINK-1489, 45776 (Decayed)

Orbit data source: Space-Track

STARLINK-1489, 45776 was a payload satellite owned by SpaceX/Seattle (US) in LEO that was launched on Sat, 13 Jun 2020 UTC via an FALCON 9 launch vehicle from the Air Force Eastern Test Range (AFETR). Payload-class satellites include a variety of spacecraft equipped with specific instruments for various scientific and technological missions. These include communications satellites like Starlink; space stations such as the ISS; scientific satellites like the Hubble; Earth observation satellites from companies like Planet Labs, Umbra, and HawkEye 360; GPS; miniature CubeSats for education and research; and military/defense satellites.

Not visible in the next 10 days
Identifier
45776, 2020-038AY
Orbit
Decayed
Country
Flag of USUS
Related business
Manufacturer
SpaceX/Seattle
Mission
Decayed Commercial Communications
Bus & Motor
STARLINK, Unknown motor
Mass
260 kg wet, ~248 kg dry
Launch date (UTC)
2020-06-13 (6 years ago)
Launch vehicle
FALCON 9
Launch site
Air Force Eastern Test Range (AFETR)
Object type
Payload
Rocket body
Debris
Shape & HBR
Box + 1 Pan, 10.1 m
Radar Cross Section
13.562 m², Large (>1 m²)

Expand to show TLE details & history
Last TLE update: 1 year ago

TLE from 1 year ago
0 STARLINK-1489
1 45776U 20038AY  25171.63888863  .15165272  12557-4  31477-3 0  9996
2 45776  53.0202 188.7965 0001575 268.9221 195.8159 16.47010126279830
Epoch: 2025-06-20T15:19Z
TLE epoch observation values (Epoch: 2025-06-20T15:19:59.977Z)
Latitude
50.74323°
Longitude
163.34584°
Altitude
154.132 km
Speed
7.82 km/s
True Right ascension
20h 09m 44s
True Declination
50° 33' 32"
Sunlit
Object was in daylight at epoch
Visualization orbit readout
Latitude
Unknown
Longitude
Unknown
Altitude
Unknown
Speed
Unknown
Apparent Right ascension
Unknown
Apparent Declination
Unknown
Sunlit
N/A
Visualization observer readout
Local Sidereal Time
13:00:07
Azimuth
Unknown
Elevation
Unknown
Doppler factor
Unknown
Orbital elements
Apogee altitude
148.541 km
Perigee altitude
146.486 km
Semi-major axis
6,525.65 km
Eccentricity
0.00016
Inclination
53.0202°
RAAN
188.7965°
Arg. of periapsis
268.9221°
True anomaly
195.81098°
Mean anomaly
195.8159°
Eccentric anomaly
195.81344°
Mean motion
4.11725 °/min
Orbital period
87.44 mins
BSTAR
0.00031477
Loading maneuver chart data...
Computing Atmospheric mass density...

Documentation

Showing up to 5 results
|